[[{"header":{"parameterUnit":"m.s-1","parameterCategory":1,"la1":30.2992,"la2":30.254,"lo1":-89.0895,"lo2":-89.0443,"dy":0.0025,"dx":0.0025,"nx":19,"ny":19,"refTime":"2026-05-14T03:00:00:Z","depth":0,"parameterNumber":2,"parameterNumberName":"U-component_of_WINDS"},"data":[0,0,0,0.5259,0.5262,0.5424,0.5424,0.5621,0.5623,0,0,0,0,0,0,0,0,0,0,0,0.5201,0.5202,0.5258,0.5262,0.5423,0.5424,0.5621,0.5623,0,0,0,0,0,0,0,0,0,0,0,0.5201,0.5202,0.5203,0.5263,0.5423,0.5424,0.5621,0.5503,0,0,0,0,0,0,0,0,0,0,0.5348,0.5285,0.5202,0.5203,0.5264,0.5423,0.5424,0.5498,0.551,0.5543,0,0.5566,0,0.5597,0.5635,0.5636,0,0,0,0.527,0.5274,0.5326,0.5203,0.5265,0.5423,0.5353,0.5505,0.5519,0.556,0.5569,0.5577,0.5601,0.5637,0.5637,0.5791,0.5792,0,0,0.5261,0.5226,0.5316,0.5335,0.5305,0.5348,0.5358,0.5514,0.5523,0.557,0.5582,0.5604,0.5638,0.5639,0.5791,0.5791,0,0,0,0.523,0.5219,0.5268,0.5326,0.5356,0.5352,0.5364,0.5516,0.5535,0.5584,0.5606,0.5639,0.5641,0.5791,0.5791,0.5773,0,0,0,0.5225,0.5201,0.5263,0.5243,0.5353,0.5437,0.5362,0.5524,0.5542,0.5605,0.5639,0.5643,0.579,0.5791,0.5773,0.577,0,0,0,0.5194,0.5198,0.5217,0.5241,0.5309,0.5435,0.5463,0.5529,0.5556,0.5636,0.5643,0.579,0.5791,0.5772,0.577,0.5801,0,0,0,0.5151,0.5199,0.5216,0.528,0.5307,0.5422,0.5463,0.555,0.5617,0.564,0.579,0.5791,0.5772,0.577,0.58,0.582,0.5824,0,0,0.5193,0.5203,0.5243,0.5263,0.5365,0.54,0.5501,0.5597,0.5639,0.5739,0.5743,0.5773,0.577,0.5801,0.5863,0.5866,0,0,0,0.5245,0.5273,0.5308,0.5368,0.5441,0.5505,0.5588,0.5625,0.5711,0.5682,0.5793,0.5793,0.5812,0.5823,0.5826,0.5846,0.5795,0.5795,0.5794,0.5252,0.5301,0.5372,0.5441,0.5499,0.5586,0.5639,0.5703,0.5737,0.5763,0.5792,0.5824,0.5835,0.5838,0.5858,0.5807,0.5807,0.5807,0.5807,0.5317,0.5366,0.5409,0.5492,0.5546,0.5618,0.5705,0.5727,0.5804,0.5805,0.5825,0.5822,0.584,0.586,0.5806,0.5806,0.5806,0.5806,0.5806,0.5327,0.5359,0.5401,0.5495,0.5563,0.5633,0.5705,0.5752,0.5797,0.5816,0.5854,0.5854,0.5861,0.5831,0.5831,0.5831,0.5831,0.5831,0.5831,0.5321,0.5369,0.5422,0.5505,0.5551,0.5618,0.5707,0.5755,0.5821,0.585,0.585,0.5882,0.5832,0.5818,0.5833,0.5833,0.5832,0.5832,0.5832,0.5368,0.5365,0.5446,0.5493,0.5595,0.5661,0.572,0.5814,0.5861,0.5896,0.5924,0.5879,0.5894,0.5893,0.5882,0.5912,0.5912,0.5912,0.5912,0.5376,0.5388,0.5483,0.5554,0.5629,0.5692,0.5786,0.5858,0.5932,0.5965,0.5968,0.5958,0.5954,0.5971,0.5968,0.5958,0.6008,0.6008,0.6008,0.5408,0.543,0.5499,0.5569,0.5654,0.5726,0.5818,0.5901,0.5985,0.6013,0.5992,0.5988,0.5972,0.5964,0.599,0.5984,0.5968,0,0]},{"header":{"parameterUnit":"m.s-1","parameterCategory":1,"la1":30.2992,"la2":30.254,"lo1":-89.0895,"lo2":-89.0443,"dy":0.0025,"dx":0.0025,"nx":19,"ny":19,"refTime":"2026-05-14T03:00:00:Z","depth":0,"parameterNumber":3,"parameterNumberName":"V-component_of_WINDS"},"data":[0,0,0,-0.0967,-0.0962,-0.0737,-0.0736,-0.043,-0.0427,0,0,0,0,0,0,0,0,0,0,0,-0.1021,-0.1019,-0.0968,-0.0962,-0.0737,-0.0736,-0.043,-0.0427,0,0,0,0,0,0,0,0,0,0,0,-0.1023,-0.102,-0.1017,-0.0961,-0.0737,-0.0736,-0.0431,-0.0607,0,0,0,0,0,0,0,0,0,0,-0.0829,-0.0867,-0.102,-0.1016,-0.0959,-0.0738,-0.0736,-0.0616,-0.0596,-0.0523,0,-0.0455,0,-0.0436,-0.0405,-0.0404,0,0,0,-0.097,-0.0883,-0.0834,-0.1016,-0.0957,-0.0738,-0.0841,-0.0605,-0.0583,-0.0497,-0.0451,-0.044,-0.0431,-0.0403,-0.0401,0.0048,0.005,0,0,-0.0983,-0.0974,-0.085,-0.0819,-0.0852,-0.0848,-0.0834,-0.0592,-0.0541,-0.045,-0.0433,-0.0426,-0.0401,-0.0398,0.0045,0.0048,0,0,0,-0.1012,-0.0982,-0.094,-0.0831,-0.0792,-0.0841,-0.0825,-0.0552,-0.0539,-0.043,-0.0422,-0.0399,-0.0395,0.0043,0.0047,0.0179,0,0,0,-0.102,-0.1,-0.0945,-0.0937,-0.0796,-0.0669,-0.079,-0.0555,-0.0528,-0.0424,-0.0399,-0.0392,0.004,0.0045,0.0169,0.0241,0,0,0,-0.104,-0.1002,-0.0966,-0.0937,-0.084,-0.0673,-0.0646,-0.055,-0.0523,-0.0404,-0.0391,0.0038,0.0044,0.0161,0.0227,0.0362,0,0,0,-0.1059,-0.085,-0.0964,-0.0728,-0.0842,-0.0594,-0.0648,-0.0463,-0.0345,-0.0397,0.004,0.0046,0.0158,0.0218,0.0352,0.0477,0.053,0,0,-0.0791,-0.0817,-0.068,-0.0775,-0.0504,-0.0629,-0.0338,-0.0238,-0.0234,-0.0046,-0.0036,0.0172,0.0226,0.036,0.0818,0.086,0,0,0,-0.0592,-0.0492,-0.0423,-0.0311,-0.023,-0.0156,-0.0101,-0.0064,0.0094,-0.0136,0.0256,0.0288,0.0366,0.0425,0.0461,0.0527,0.0074,0.0073,0.0072,-0.0198,-0.0206,0.0021,0.0039,0.0148,0.02,0.0288,0.0346,0.0308,0.04,0.0457,0.0736,0.0806,0.0832,0.0902,0.052,0.0521,0.0521,0.0522,0.0195,0.0335,0.0274,0.0473,0.0463,0.063,0.0687,0.0654,0.0807,0.0693,0.0762,0.064,0.0878,0.0938,0.0532,0.053,0.0529,0.0528,0.0527,0.0454,0.0519,0.0558,0.0717,0.084,0.085,0.1,0.0985,0.0972,0.1039,0.1097,0.1095,0.1091,0.1067,0.1068,0.1069,0.107,0.1071,0.1071,0.0708,0.0747,0.0875,0.0975,0.1043,0.1131,0.1183,0.125,0.132,0.1297,0.1298,0.125,0.0902,0.0816,0.1086,0.1084,0.1082,0.108,0.1079,0.1113,0.1018,0.1215,0.1284,0.1398,0.152,0.1497,0.1634,0.1687,0.1761,0.1696,0.1442,0.1414,0.1386,0.1314,0.1697,0.1697,0.1697,0.1697,0.1332,0.1315,0.1512,0.1622,0.1727,0.1725,0.1947,0.1988,0.2016,0.2047,0.1989,0.1892,0.1864,0.1853,0.1814,0.1748,0.2232,0.2233,0.2233,0.1581,0.1573,0.1766,0.179,0.1877,0.1952,0.216,0.2288,0.2299,0.2255,0.2072,0.2049,0.1893,0.1842,0.1797,0.1738,0.1615,0,0]}]]